Location: �bnet
(46.9957°N, 8.4908°E)
Time: 16:09:52
(UTC+00:00)

BREEZE-M R/B - Pass Details

Date: 11 May 2021
Orbit: 311 x 4501 km, 49.7° (Epoch: 17 June)

Event Time Altitude Azimuth Distance (km) Brightness Sun altitude
Rises 20:58:59 0° 271° (W) 2,112 6.4 -17.3°
Reaches altitude 10° 21:00:55 10° 278° (W) 1,208 5.2 -17.5°
Maximum altitude 21:03:16 47° 355° (N) 441 2.7 -17.8°
Enters shadow 21:04:32 24° 59° (ENE) 764 3.5 -17.9°
